Showing default

YAOGAN-43 02A, 60945

Orbit data source: Space-Track

YAOGAN-43 02A, 60945 is a payload satellite owned by PLA GAD (CN) in LEO that was launched on Tue, 03 Sep 2024 UTC via a CHANG ZHENG 4B launch vehicle from the Xichang Space Center, China (XSC). Payload-class satellites include a variety of spacecraft equipped with specific instruments for various scientific and technological missions. These include communications satellites like Starlink; space stations such as the ISS; scientific satellites like the Hubble; Earth observation satellites from companies like Planet Labs, Umbra, and HawkEye 360; GPS; miniature CubeSats for education and research; and military/defense satellites.

Loading next visibility...
Identifier
60945, 2024-156A
Orbit
LEO
Country
Flag of CNCN / PRC
Related business
Manufacturer
SAST
Mission
Operational Defense Communications
Bus & Motor
Unknown
Mass
~300 kg wet, ~300 kg dry
Launch date (UTC)
2024-09-03 (2 years ago)
Launch vehicle
CHANG ZHENG 4B
Launch site
Xichang Space Center, China (XSC)
Object type
Payload
Rocket body
Debris
Shape & HBR
Box + 2 Pan, 2.5 m
Radar Cross Section
11.063 m², Large (>1 m²)

Expand to show TLE details & history
Last TLE update: 5 hours ago

TLE from 5 hours ago
0 YAOGAN-43 02A
1 60945U 24156A   26256.79619830  .00059476  00000-0  75375-3 0  9997
2 60945  34.9939 288.8209 0001949 180.1226 179.9499 15.58311726113757
Epoch: 2026-09-13T19:06Z
TLE epoch observation values (Epoch: 2026-09-13T19:06:31.533Z)
Latitude
-0.00002°
Longitude
9.40377°
Altitude
392.752 km
Speed
7.676 km/s
True Right ascension
19h 15m 17s
True Declination
0° 00' 00"
Sunlit
Object was in full shadow at epoch
Visualization orbit readout
Latitude
Unknown
Longitude
Unknown
Altitude
Unknown
Speed
Unknown
Apparent Right ascension
Unknown
Apparent Declination
Unknown
Sunlit
N/A
Visualization observer readout
Local Sidereal Time
16:55:31
Azimuth
Unknown
Elevation
Unknown
Doppler factor
Unknown
Orbital elements
Apogee altitude
397.164 km
Perigee altitude
394.524 km
Semi-major axis
6,773.981 km
Eccentricity
0.00019
Inclination
34.9939°
RAAN
288.8209°
Arg. of periapsis
180.1226°
True anomaly
179.94992°
Mean anomaly
179.9499°
Eccentric anomaly
179.94991°
Mean motion
3.89294 °/min
Orbital period
92.48 mins
BSTAR
0.00075375
Loading maneuver chart data...
Computing Atmospheric mass density...
Loading historical data...
Loading historical data...
Loading historical data...
Loading historical data...
Loading historical data...
Loading historical data...
Loading historical data...

Documentation

Showing up to 5 results
|